Location: Daybis Observatory
(33.4273°N, 88.8061°W)
Time: 12:02:55
(UTC-05:00)

Daily predictions for brighter satellites

Satellite Brightness Start Highest point End
(mag) Time Altitude Azimuth Time Altitude Azimuth Time Altitude Azimuth
Cosmos 1697 Rocket 3.1 19:38:43 10° S 19:43:55 39° ESE 19:49:07 10° NE
Resurs 1-3 4.0 19:41:52 10° SE 19:46:00 43° ENE 19:50:09 10° N
Tiangong 1 3.3 19:43:56 10° NNW 19:46:04 17° N 19:48:11 10° NE
Cosmos 2123 Rocket 4.1 19:44:59 10° N 19:51:02 54° E 19:57:03 10° SSE
ATLAS 3B CENTAUR R/B 2.2 19:50:01 10° WSW 19:52:06 18° SSW 19:53:36 10° SSE
HJ-1C 3.3 19:48:51 10° SSE 19:52:06 69° ENE 19:55:24 10° N
Cosmos 1544 Rocket 4.4 19:53:32 10° SSW 19:57:50 56° W 20:02:11 10° N
Cosmos 468 Rocket 4.1 19:57:39 10° S 20:02:34 50° ESE 20:07:31 10° NNE
BREEZE-M DEB (TANK) 4.2 20:02:20 10° WSW 20:05:37 60° NNW 20:15:45 10° NE
Cosmos 1934 Rocket 4.3 19:59:48 10° SSW 20:05:55 72° W 20:12:09 10° N
Cosmos 1980 Rocket 2.7 20:03:13 10° S 20:08:22 37° ESE 20:13:34 10° NE
DELTA 2 R/B (1) 3.7 20:04:22 10° WNW 20:09:57 73° NNE 20:14:35 15° ESE
Helios 1A 3.4 20:07:50 10° S 20:11:58 67° WSW 20:16:09 10° NNW
Meteor 1-29 4.4 20:08:59 10° N 20:12:17 43° WNW 20:15:37 10° SSW
Resurs 01 Rocket 2.2 20:10:47 10° S 20:15:09 62° W 20:19:33 10° NNW
RESURS DK-1 3.7 20:13:00 10° N 20:16:21 23° ENE 20:18:10 18° E
Cosmos 1814 Rocket 4.1 20:11:14 10° S 20:16:27 58° ESE 20:21:40 10° NNE
H-2A R/B 3.2 20:13:08 10° SE 20:16:49 43° ENE 20:20:33 10° N
Cosmos 1461 3.9 20:14:52 10° NW 20:18:39 43° WSW 20:22:21 10° S
FENGYUN 3A 3.7 20:13:35 10° SSE 20:18:49 60° ENE 20:24:05 10° N
Cosmos 1656 4.0 20:13:22 10° SSW 20:18:58 70° WNW 20:24:32 10° NNE
Cosmos 1153 Rocket 4.4 20:13:07 10° S 20:19:14 67° E 20:25:19 10° NNE
NOSS 3-4 (A) 4.4 20:13:15 10° NW 20:20:15 59° WSW 20:27:38 10° SSE
NOSS 3-4 (C) 4.4 20:13:22 10° NW 20:20:23 60° WSW 20:27:47 10° SSE
CZ-4B DEB 2.7 20:18:38 10° SSE 20:21:54 88° ENE 20:25:11 10° N
Cosmos 1802 Rocket 4.3 20:31:17 10° SSE 20:37:16 45° E 20:43:19 10° NNE
Cosmos 1500 3.1 20:34:38 10° S 20:38:23 86° W 20:42:10 10° N
Lacrosse 5 2.2 20:34:45 10° NNW 20:39:41 50° NE 20:41:56 29° ESE
Iridium 4 Rocket 3.1 20:35:04 10° N 20:39:51 75° E 20:44:11 10° S
Cosmos 1975 4.0 20:38:05 10° SSW 20:42:01 46° W 20:45:59 10° N
Cosmos 2016 Rocket 4.4 20:37:16 14° SSE 20:42:06 39° E 20:47:46 10° NNE
CZ-2D R/B 3.4 20:39:07 11° S 20:42:51 74° WSW 20:46:45 10° NNW
Cosmos 2322 Rocket 3.0 20:43:34 27° E 20:43:34 27° E 20:47:52 10° NE
Cosmos 1825 Rocket 4.2 20:39:46 10° NNE 20:43:44 33° E 20:44:13 32° E
Cosmos 2227 Rocket 3.4 20:38:34 10° NW 20:43:51 42° WSW 20:49:07 10° S
OTV 4 2.4 20:44:51 10° W 20:47:05 19° SSW 20:47:34 19° SSW
Cosmos 1340 3.8 20:44:49 10° NNE 20:47:32 27° ENE 20:47:32 27° ENE
Lacrosse 5 rocket 2.7 20:45:31 10° WNW 20:48:41 28° WSW 20:50:50 16° S
Cosmos 2084 3.5 20:45:44 10° NW 20:49:52 75° WSW 20:51:53 30° SSE
Envisat 3.7 20:49:39 30° E 20:50:28 32° ENE 20:54:57 10° N
Cosmos 2173 Rocket 3.9 20:47:26 10° S 20:53:46 72° E 21:00:05 10° N
H-2A R/B 3.7 20:55:01 18° NE 20:55:01 18° NE 20:56:56 10° NNE
USA 186 2.2 20:53:34 32° SSW 20:54:40 53° W 20:57:28 10° NNW
Cosmos 1937 Rocket 3.5 20:50:31 10° NNW 20:55:48 69° ENE 20:58:05 34° SSE
Cosmos 1953 Rocket 4.4 20:52:01 10° NNE 20:55:42 33° ENE 20:55:42 33° ENE
Cosmos 2297 Rocket 3.2 20:53:14 10° NW 20:58:35 45° WSW 21:03:54 10° S
ALOS 3.4 20:57:46 10° S 21:02:10 42° W 21:06:36 10° NNW
CZ-4 DEB 3.8 21:03:21 35° NNE 21:03:21 35° NNE 21:05:23 10° N
Cosmos 2360 4.1 20:57:06 10° SSW 21:02:48 82° ESE 21:08:32 10° NNE
Cosmos 990 Rocket 4.0 20:58:06 10° N 21:03:17 58° ENE 21:04:27 46° ESE
Cosmos 2298 Rocket 4.5 20:59:07 10° NNW 21:04:21 61° WSW 21:08:05 19° S
ERS-1 Rocket 2.9 21:08:47 50° SE 21:09:55 67° ENE 21:14:55 10° N
Cosmos 2227 4.4 21:05:57 10° N 21:11:33 52° ENE 21:12:25 48° E
OAO 2 Rocket 3.2 21:06:35 10° WNW 21:11:37 87° N 21:12:34 60° E
Cosmos 2100 Rocket 4.2 21:06:10 10° SSW 21:12:25 72° W 21:18:39 10° N
YAOGAN 11 4.0 21:11:55 62° SSE 21:12:39 82° ENE 21:17:07 10° N
Meteor 1-21 4.2 21:08:13 10° N 21:13:58 65° E 21:15:23 49° SE
Cosmos 1758 Rocket 4.4 21:10:11 10° N 21:13:13 36° NE 21:13:13 36° NE
BREEZE-M DEB (TANK) 4.1 21:15:54 10° NNW 21:17:24 20° NNE 21:17:24 20° NNE
Cosmos 836 Rocket 4.4 21:18:12 15° SSW 21:22:38 85° ESE 21:27:57 10° NNE
Cosmos 1939 Rocket 3.1 21:23:17 63° N 21:23:17 63° N 21:26:50 10° N
Cosmos 1743 3.9 21:20:17 17° SW 21:22:57 42° W 21:26:41 10° N
Tiangong 1 3.1 21:19:58 10° NW 21:21:38 27° NW 21:21:38 27° NW
Cosmos 1763 Rocket 4.1 21:18:17 10° SSW 21:23:16 54° WNW 21:28:15 10° N
deb Chang Zheng 4 4.4 21:23:50 10° NNE 21:26:46 40° NNE 21:26:46 40° NNE
Tsikada Rocket 4.2 21:24:20 10° N 21:30:24 50° ENE 21:30:24 50° ENE
Cosmos 2058 Rocket 3.8 21:40:58 51° NNW 21:40:58 51° NNW 21:44:27 10° N
SL-16 R/B 2.0 21:41:43 88° ENE 21:41:43 88° ENE 21:47:21 10° NNE
Cosmos 1725 Rocket 3.8 21:42:59 68° S 21:43:52 88° E 21:50:09 10° N
Cosmos 1125 Rocket 4.3 21:40:33 10° N 21:44:17 42° NNE 21:44:17 42° NNE
Cosmos 2098 Rocket 4.1 21:43:33 33° SSW 21:46:50 76° W 21:52:37 10° N
Cosmos 1980 Rocket 4.3 21:47:47 10° WSW 21:52:24 25° WNW 21:57:04 10° N
ASTEX 1 3.9 21:47:56 10° N 21:51:52 55° NNW 21:51:52 55° NNW
RESURS DK-1 4.5 21:51:04 10° NW 21:54:08 22° WSW 21:54:08 22° WSW
CZ-3 Stage 3 4.3 21:29:10 10° WNW 22:03:57 48° SW 22:05:22 45° S
Milstar 3 Cent rocket 4.1 21:56:47 10° W 22:16:39 57° SSW 22:18:32 53° S
Cosmos 2263 Rocket 3.6 22:15:23 10° N 22:18:16 30° N 22:18:16 30° N
Lacrosse 5 4.1 22:18:38 10° WNW 22:21:09 19° W 22:21:09 19° W
Cosmos 2322 Rocket 3.6 22:25:05 26° W 22:27:05 33° WNW 22:32:09 10° N
